Location: Dumpton Point
(51.3500°N, 1.4433°E)
Time: 23:28:44
(UTC+00:00)

Vanguard 2 Rocket - Pass Details

Date: 03 October 2022
Orbit: 555 x 3321 km, 32.9° (Epoch: 09 December)

Event Time Altitude Azimuth Distance (km) Brightness Sun altitude
Rises 20:27:09 0° 202° (SSW) 7,066 11.3 -27.8°
Reaches altitude 10° 20:35:01 10° 185° (S) 5,636 10.6 -28.8°
Enters shadow 20:38:00 13° 175° (S) 5,159 10.4 -29.2°
Maximum altitude 20:43:02 16° 155° (SSE) 4,550 - -29.8°
Drops below altitude 10° 20:49:30 10° 124° (ESE) 4,407 - -30.7°
Sets 20:54:16 0° 103° (ESE) 4,881 - -31.2°
